Regional Weather Roundup
Issued by NWS Cleveland, OH

Home | Current Version | Previous Version | Graphics & Text | Print | Product List | Glossary On
Versions: 1 2 3 4 5 6 7 8 9 10 11 12 13 14 15 16 17 18 19 20 21 22 23 24 25 26 27 28 29 30 31 32 33 34 35 36 37 38 39 40 41 42 43 44 45 46 47 48 49 50
175
ASUS41 KCLE 082300
RWRCLE
OHIO REGIONAL WEATHER ROUNDUP
NATIONAL WEATHER SERVICE WILMINGTON, OH
600 PM EST THU DEC 08 2016

NOTE: "FAIR" INDICATES FEW OR NO CLOUDS BELOW 12,000 FEET WITH NO
SIGNIFICANT WEATHER AND/OR OBSTRUCTIONS TO VISIBILITY.

OHZ001>008-015>018-024>027-034-035-043-044-090000-
   NORTHWEST OHIO

CITY           SKY/WX    TMP DP  RH WIND       PRES   REMARKS
DEFIANCE       FLURRIES  23  14  68 SW12G17   30.30R WCI  12
FINDLAY        CLOUDY    24  13  62 W20       30.27R WCI  10
TOLEDO EXPRESS FLURRIES  22  17  81 W21G29    30.25R WCI   6
TOLEDO EXEC    CLOUDY    24  17  74 W16G26    30.26R WCI  11
LIMA           FLURRIES  21  15  78 W16       30.30R WCI   7
$$

OHZ009>014-019>023-028>033-038-089-090000-
   NORTHEAST OHIO

CITY           SKY/WX    TMP DP  RH WIND       PRES   REMARKS
CLE-HOPKINS    FLURRIES  26  16  65 W17       30.22R WCI  13
CLE-LAKEFRONT  LGT SNOW  27  19  72 SW25G33   30.19R WCI  12
CUY CO. ARPT   LGT SNOW  27  21  80 W12G21    30.17R WCI  16
LORAIN-ELYRIA  FLURRIES  24  16  71 W21G26    30.22R WCI   9
ASHTABULA      LGT SNOW  24  22  91 SW15      30.12R VSB 1   WCI  11
AKRON-CANTON   FLURRIES  24  14  65 W14G26    30.19R WCI  12
WOOSTER        NOT AVBL
MANSFIELD      FLURRIES  21  14  74 W13G23    30.23R WCI   9
YOUNGSTOWN     FLURRIES  25  15  66 W15G29    30.14R WCI  13
$$

OHZ042-051>053-060>062-070>072-077>081-090000-
  SOUTHWEST OHIO

CITY           SKY/WX    TMP DP  RH WIND       PRES   REMARKS
CINC-COVINGTON FAIR      24  14  65 NW15G22   30.37R WCI  11
CINC-LUNKEN    MOCLDY    26  14  60 NW12G21   30.41R WCI  16
HAMILTON       CLOUDY    25  14  63 W13       30.40R WCI  14
DAYTON         NOT AVBL
WRIGHT-PAT AFB NOT AVBL
DAYTON GENERAL CLOUDY    24  14  65 W14G21    30.33R WCI  12
WILMINGTON     CLOUDY    23  14  68 W9G20     30.33R WCI  13
$$

OHZ036-037-039>041-045>050-054>059-063>069-073>076-082>088-090000-
  CENTRAL AND SOUTHEAST OHIO

CITY           SKY/WX    TMP DP  RH WIND       PRES   REMARKS
COLUMBUS       FLURRIES  24  16  71 W15       30.30R WCI  11
OSU AIRPORT    FLURRIES  24  16  71 W12G21    30.30R WCI  13
BOLTON FIELD   CLOUDY    25  16  68 W9G16     30.31S WCI  15
RICKENBACK AFB NOT AVBL
NEWARK         CLOUDY    25  14  63 W13       30.29R WCI  14
MARION         FLURRIES  23  17  78 W13       30.28R WCI  11
LANCASTER      CLOUDY    25  15  66 W8G17     30.31R WCI  16
ZANESVILLE     CLOUDY    25  12  58 W13G24    30.28R WCI  14
NEW PHILLY     FLURRIES  25  16  68 W12G21    30.25R WCI  14
$$




USA.gov is the U.S. government's official web portal to all federal, state and local government web resources and services.